Погода во Владимиро-Александровском

Россия / Приморский край     42°53′26″N   133°04′37″E
темп.,
°C
ветер,
м/с
пор.,
м/с
влажн.,
%
обл.,
%
осадки,
мм/ч
давл.,
гПа
погр.,
м
17 апреля, сб
сб1701:00+5ююв1196100 0.2 101233
04:00+4ююв119788 0.2 101210
07:00+4св11944 0.2 101225
10:00+10юз125421 0.3 1014545
13:00+14юз24245 0.0 10122783
16:00+14зюз33215 0.0 10102624
19:00+9ююз2246100 0.0 1010185
22:00+7с1153100 0.0 101025
18 апреля, вс
вс1801:00+6ссз2355100 0.0 100852
04:00+4с235691 0.0 100743
07:00+4с3660100 0.0 1007153
10:00+10с6134789 0.0 10051492
13:00+12ссз71038100 0.0 10031844
16:00+14ссз7113784 0.0 10022097
19:00+11ссз713475 0.0 10041659
22:00+9ссз412540 0.0 1005901
19 апреля, пн
пн1901:00+8сз412541 0.0 1005555
04:00+5зсз22735 0.0 100526
07:00+5сз21720 0.0 100528
10:00+13сз39360 0.0 10041438
13:00+17зсз59252 0.0 10032027
16:00+18зсз510240 0.0 10032286
19:00+14юз36360 0.0 1004237
22:00+9зюз11485 0.0 100616
20 апреля, вт
вт2001:00+10ссз48470 0.0 1007420
04:00+5с515380 0.0 10111077
07:00+3с515340 0.0 10151117
10:00+8ссз514200 0.0 10171495
13:00+11сз611160 0.0 10161795
16:00+15сз714160 0.0 10152363
19:00+13зсз514210 0.0 10161798
22:00+5зюз24570 0.0 101989
21 апреля, ср
ср2101:00+5зсз12570 0.0 102021
04:00+5сз11520 0.0 102115
07:00+5с11475 0.0 102214
10:00+15з13250 0.0 1021608
13:00+19зюз46175 0.0 10191816
16:00+19юз46205 0.0 1018916
19:00+14юз34360 0.0 1019167
22:00+9зюз11621 0.0 102010